GW2996 Weather Reports


time (UTC)temp
C
wind
direction
speed
KPH
gust
KPH
rain 1hr
cm
rain 24hr
cm
rain mn
cm
humidity
%
barometer
mb
20260506231757 7 44 0.0 0.0 0.00 1.75 1.75 87 1008.6
20260506231255 7 44 0.0 0.0 0.00 1.75 1.75 87 1008.6
20260506230752 7 228 0.0 0.0 0.00 1.75 1.75 86 1009.0
20260506230248 7 49 0.0 0.0 0.00 1.75 1.75 87 1008.8
20260506225745 7 124 0.0 0.0 0.00 1.75 1.75 87 1008.8
20260506225242 7 66 0.0 1.6 0.00 1.75 1.75 88 1008.7
20260506224738 7 173 0.0 1.6 0.00 1.75 1.75 88 1009.3
20260506224236 7 353 0.0 0.0 0.00 1.75 1.75 88 1009.0
20260506223732 7 236 3.2 3.2 0.00 1.75 1.75 88 1009.1
20260506223227 7 14 0.0 1.6 0.00 1.75 1.75 88 1009.0
20260506222725 7 256 0.0 0.0 0.00 1.75 1.75 88 1009.4
20260506222220 7 209 0.0 0.0 0.00 1.75 1.75 88 1008.8
20260506221718 7 350 1.6 3.2 0.00 1.75 1.75 88 1009.1
20260506221216 7 22 0.0 1.6 0.00 1.75 1.75 88 1009.1
20260506220713 7 32 0.0 3.2 0.00 1.75 1.75 88 1008.9
20260506220208 7 7 3.2 3.2 0.00 1.75 1.75 87 1008.8
20260506215705 7 299 0.0 4.8 0.00 1.75 1.75 88 1009.0
20260506215200 7 327 0.0 4.8 0.00 1.75 1.75 88 1009.1
20260506214657 7 54 0.0 4.8 0.00 1.75 1.75 88 1008.9
20260506214154 7 1 3.2 3.2 0.00 1.75 1.75 88 1009.0
20260506213653 7 113 0.0 3.2 0.00 1.75 1.75 88 1009.1
20260506213150 7 10 4.8 6.4 0.00 1.75 1.75 88 1008.7
20260506212647 7 344 3.2 4.8 0.00 1.75 1.75 88 1008.9
20260506212142 7 47 3.2 4.8 0.05 1.75 1.75 88 1008.9
20260506211638 7 0 4.8 4.8 0.05 1.75 1.75 88 1009.0
20260506211134 7 40 1.6 3.2 0.00 1.75 1.75 88 1009.1
20260506210631 7 326 0.0 3.2 0.00 1.75 1.75 88 1009.0
20260506210128 7 320 0.0 4.8 0.00 1.75 1.75 88 1009.1
20260506205625 7 44 0.0 3.2 0.00 1.75 1.75 88 1009.1
20260506205119 7 315 1.6 3.2 0.05 1.75 1.75 88 1009.1
20260506204618 7 176 0.0 3.2 0.05 1.75 1.75 88 1009.1
20260506204115 7 5 1.6 4.8 0.00 1.73 1.73 88 1009.0
20260506203613 7 261 1.6 4.8 0.00 1.73 1.73 88 1008.8
20260506203109 7 1 3.2 6.4 0.05 1.73 1.73 88 1008.7
20260506202607 7 341 1.6 3.2 0.05 1.73 1.73 88 1008.8
20260506202103 7 13 1.6 3.2 0.05 1.73 1.73 88 1008.8
20260506201601 7 22 1.6 8.0 0.05 1.70 1.70 88 1009.1
20260506201057 7 342 3.2 6.4 0.05 1.70 1.70 87 1008.7
20260506200554 7 342 6.4 11.3 0.00 1.70 1.70 87 1008.9
20260506200050 7 8 0.0 3.2 0.00 1.70 1.70 87 1008.6
20260506195547 7 335 1.6 3.2 0.00 1.70 1.70 86 1008.9
20260506195043 7 343 3.2 6.4 0.00 1.70 1.70 87 1008.6
20260506194541 7 21 3.2 4.8 0.05 1.70 1.70 87 1008.8
20260506194037 7 0 3.2 6.4 0.05 1.70 1.70 87 1008.6
20260506193535 7 265 3.2 8.0 0.00 1.70 1.70 87 1008.7
20260506193032 7 351 1.6 8.0 0.00 1.70 1.70 87 1008.7
20260506192529 7 16 3.2 8.0 0.00 1.70 1.70 87 1008.6
20260506192024 7 265 1.6 4.8 0.00 1.70 1.70 87 1008.6
20260506191521 7 354 6.4 6.4 0.00 1.70 1.70 86 1008.5
20260506191017 7 0 4.8 4.8 0.00 1.70 1.70 87 1008.8
20260506190515 7 15 4.8 4.8 0.00 1.70 1.70 88 1008.7
20260506190012 7 3 3.2 4.8 0.00 1.70 1.70 87 1008.8
20260506185509 7 3 4.8 4.8 0.00 1.70 1.70 87 1008.9
20260506185005 7 0 0.0 4.8 0.00 1.70 1.70 88 1008.9
20260506184503 7 352 4.8 4.8 0.00 1.70 1.70 87 1008.8
20260506183954 7 322 3.2 4.8 0.00 1.70 1.70 88 1009.1
20260506183449 7 265 3.2 3.2 0.00 1.70 1.70 88 1009.0
20260506182946 7 343 3.2 4.8 0.05 1.70 1.70 88 1009.0
20260506182444 7 14 0.0 6.4 0.05 1.70 1.70 88 1009.1
20260506181941 7 354 1.6 3.2 0.00 1.68 1.68 88 1009.4
20260506181439 7 349 1.6 6.4 0.00 1.68 1.68 88 1009.1
20260506180930 6 335 1.6 6.4 0.00 1.68 1.68 87 1009.4
20260506180426 7 173 0.0 4.8 0.05 1.68 1.68 88 1009.5
20260506175923 7 23 3.2 4.8 0.00 1.68 1.68 88 1009.6
20260506175420 6 311 0.0 4.8 0.05 1.68 1.68 88 1009.7
20260506174917 7 45 1.6 3.2 0.13 1.68 1.68 88 1009.8
20260506174414 7 62 1.6 6.4 0.13 1.65 1.65 88 1009.8
20260506173912 7 7 4.8 4.8 0.05 1.65 1.65 88 1009.6
20260506173408 7 224 0.0 3.2 0.05 1.65 1.65 88 1009.8
20260506172906 6 347 1.6 4.8 0.05 1.65 1.65 88 1009.7
20260506172402 6 2 4.8 6.4 0.05 1.63 1.63 88 1009.5
20260506171859 7 10 6.4 8.0 0.05 1.63 1.63 88 1009.7
20260506171356 6 1 0.0 4.8 0.13 1.63 1.63 88 1009.6
20260506170853 6 17 3.2 4.8 0.13 1.60 1.60 89 1010.0
20260506170349 6 12 3.2 3.2 0.18 1.60 1.60 89 1010.0
20260506165844 6 16 3.2 6.4 0.18 1.57 1.57 89 1010.1
20260506165341 6 352 4.8 4.8 0.18 1.55 1.55 89 1010.2
20260506164837 6 355 3.2 6.4 0.18 1.52 1.52 89 1010.1
20260506164334 6 336 1.6 4.8 0.18 1.50 1.50 89 1010.1
20260506163832 6 15 3.2 6.4 0.18 1.50 1.50 89 1009.9
20260506163326 6 1 1.6 4.8 0.23 1.47 1.47 89 1010.1
20260506162821 6 37 3.2 6.4 0.23 1.45 1.45 89 1009.9
20260506162319 6 346 4.8 8.0 0.30 1.45 1.45 89 1010.3
20260506161816 6 331 6.4 8.0 0.18 1.42 1.42 89 1010.2
20260506161314 6 3 6.4 6.4 0.18 1.40 1.40 89 1010.4
20260506160812 6 14 3.2 4.8 0.18 1.37 1.37 89 1010.3
20260506160308 6 346 6.4 6.4 0.18 1.35 1.35 89 1010.6
20260506155807 6 303 1.6 6.4 0.23 1.35 1.35 89 1010.4
20260506155306 6 347 1.6 8.0 0.23 1.32 1.32 89 1010.5
20260506153415 6 126 0.0 3.2 0.30 1.22 1.22 89 1010.8
20260506152913 6 210 0.0 6.4 0.23 1.22 1.22 89 1010.4
20260506152409 6 343 0.0 6.4 0.18 1.19 1.19 89 1010.3
20260506151908 6 344 1.6 8.0 0.13 1.17 1.17 89 1010.3
20260506151404 6 5 3.2 4.8 0.13 1.14 1.14 89 1010.4
20260506150902 6 359 3.2 6.4 0.13 1.14 1.14 89 1010.5
20260506150358 6 29 0.0 8.0 0.18 1.14 1.14 89 1010.4
20260506145855 6 292 4.8 8.0 0.18 1.12 1.12 89 1010.5
20260506145351 6 304 0.0 4.8 0.18 1.09 1.09 89 1010.7
20260506144849 6 327 3.2 4.8 0.18 1.07 1.07 89 1010.5
20260506144345 6 2 3.2 4.8 0.23 1.07 1.07 88 1010.6
20260506143844 6 5 8.0 8.0 0.30 1.04 1.04 88 1010.2
20260506143340 6 343 4.8 9.7 0.43 1.04 1.04 88 1010.4
20260506142839 6 339 6.4 9.7 0.23 0.99 0.99 88 1010.7
20260506142336 6 350 8.0 8.0 0.13 0.97 0.97 89 1010.5
20260506141834 6 336 0.0 8.0 0.13 0.94 0.94 89 1010.7
20260506141332 6 310 0.0 3.2 0.13 0.94 0.94 89 1010.8
20260506140830 6 347 3.2 3.2 0.13 0.94 0.94 88 1010.4
20260506140327 6 17 3.2 4.8 0.05 0.91 0.91 88 1010.4
20260506135824 6 39 6.4 8.0 0.00 0.91 0.91 88 1010.2
20260506135320 6 38 3.2 6.4 0.05 0.91 0.91 88 1010.4
20260506134817 6 350 3.2 6.4 0.05 0.89 0.89 88 1010.8
20260506134313 6 19 1.6 3.2 0.05 0.89 0.89 88 1010.7
20260506133810 6 9 1.6 8.0 0.05 0.89 0.89 88 1010.9
20260506133307 6 0 0.0 3.2 0.13 0.89 0.89 88 1011.0
20260506132804 6 336 0.0 3.2 0.13 0.86 0.86 88 1010.9
20260506132301 6 203 1.6 4.8 0.13 0.86 0.86 88 1010.9
20260506131759 6 224 0.0 3.2 0.13 0.86 0.86 88 1010.7
20260506131254 6 344 0.0 4.8 0.13 0.84 0.84 88 1010.6
20260506130752 6 301 0.0 3.2 0.13 0.84 0.84 88 1011.1
20260506130248 6 296 0.0 4.8 0.13 0.81 0.81 87 1010.6
20260506125747 6 17 4.8 6.4 0.05 0.81 0.81 87 1010.7
20260506125244 6 49 3.2 6.4 0.05 0.81 0.81 87 1010.8
20260506124742 6 93 3.2 4.8 0.13 0.81 0.81 88 1010.8
20260506124240 7 78 1.6 3.2 0.05 0.79 0.79 87 1010.9
20260506123737 6 9 3.2 4.8 0.05 0.79 0.79 87 1010.9
20260506123236 6 5 4.8 6.4 0.13 0.76 0.76 87 1011.3
20260506122732 6 48 1.6 3.2 0.18 0.76 0.76 88 1011.1
20260506122229 6 13 3.2 4.8 0.18 0.74 0.74 87 1011.5
20260506121728 6 13 0.0 3.2 0.13 0.74 0.74 87 1011.5
20260506121224 6 356 3.2 9.7 0.18 0.71 0.71 86 1011.6
20260506120722 7 3 4.8 4.8 0.18 0.71 0.71 89 1011.7
20260506120219 7 320 0.0 1.6 0.18 0.69 0.69 90 1011.7
20260506115717 7 247 0.0 1.6 0.18 0.66 0.66 90 1011.6
20260506115215 7 226 0.0 0.0 0.18 0.66 0.66 90 1011.6
20260506114712 7 64 1.6 1.6 0.05 0.64 0.64 90 1011.2
20260506114209 7 57 0.0 1.6 0.05 0.61 0.61 90 1011.0
20260506113708 7 81 0.0 1.6 0.05 0.61 0.61 90 1010.8
20260506113205 7 40 0.0 0.0 0.00 0.61 0.61 90 1010.9
20260506112701 7 74 0.0 1.6 0.00 0.61 0.61 90 1010.9
20260506112159 7 50 1.6 4.8 0.05 0.61 0.61 90 1010.7
20260506111656 7 49 3.2 3.2 0.00 0.61 0.61 90 1010.9
20260506111154 7 72 0.0 1.6 0.00 0.61 0.61 90 1010.7
20260506110651 7 11 0.0 0.0 0.00 0.61 0.61 90 1010.6
20260506110148 7 311 0.0 0.0 0.00 0.61 0.61 90 1010.7
20260506105645 7 104 1.6 3.2 0.00 0.61 0.61 90 1010.8
20260506105142 7 66 0.0 0.0 0.00 0.61 0.61 90 1010.6
20260506104640 7 76 0.0 0.0 0.00 0.61 0.61 90 1010.6
20260506104137 7 76 0.0 0.0 0.00 0.61 0.61 90 1010.6
20260506103634 7 89 0.0 1.6 0.00 0.61 0.61 90 1010.4
20260506103131 7 162 0.0 0.0 0.00 0.61 0.61 90 1010.7
20260506102629 7 51 1.6 1.6 0.00 0.61 0.61 90 1010.6
20260506102126 7 25 3.2 3.2 0.00 0.61 0.61 90 1010.4
20260506101623 7 2 3.2 4.8 0.00 0.61 0.61 90 1010.6
20260506101120 7 23 3.2 4.8 0.00 0.61 0.61 90 1010.6
20260506100619 7 22 3.2 3.2 0.00 0.61 0.61 90 1010.7
20260506100116 7 25 1.6 4.8 0.05 0.61 0.61 90 1011.0
20260506095615 7 3 1.6 3.2 0.05 0.61 0.61 90 1011.1
20260506095111 7 304 0.0 1.6 0.00 0.58 0.58 90 1011.0
20260506094608 7 315 0.0 1.6 0.00 0.58 0.58 90 1010.5
20260506094106 7 290 0.0 0.0 0.00 0.58 0.58 90 1011.0
20260506093604 7 20 1.6 3.2 0.05 0.58 0.58 90 1010.8
20260506093101 7 78 4.8 4.8 0.05 0.58 0.58 90 1010.9
20260506092559 7 27 3.2 3.2 0.00 0.58 0.58 90 1011.1
20260506092055 7 240 0.0 1.6 0.00 0.58 0.58 90 1011.4
20260506091554 7 42 3.2 3.2 0.00 0.58 0.58 90 1011.0
20260506091051 7 149 1.6 1.6 0.00 0.58 0.58 90 1011.3
20260506090549 7 49 0.0 4.8 0.00 0.58 0.58 90 1011.0
20260506090045 7 53 4.8 4.8 0.00 0.58 0.58 90 1010.8
20260506085542 7 48 3.2 3.2 0.00 0.58 0.58 90 1010.9
20260506085038 7 88 1.6 3.2 0.00 0.58 0.58 90 1011.0
20260506084535 7 24 1.6 3.2 0.00 0.58 0.58 90 1011.2
20260506084031 7 55 0.0 0.0 0.00 0.58 0.58 90 1011.3
20260506083529 7 102 0.0 1.6 0.00 0.58 0.58 90 1011.3
20260506083026 7 61 1.6 1.6 0.00 0.58 0.58 90 1011.3
20260506082523 7 21 0.0 3.2 0.00 0.58 0.58 90 1011.4
20260506082018 8 83 1.6 3.2 0.00 0.58 0.58 90 1011.2
20260506081517 8 339 0.0 0.0 0.00 0.58 0.58 90 1011.1
20260506081014 8 339 0.0 0.0 0.00 0.58 0.58 89 1011.3
20260506080511 8 22 0.0 3.2 0.00 0.58 0.58 89 1011.1
20260506073455 8 119 0.0 1.6 0.00 0.58 0.58 89 1011.0
20260506072952 8 29 0.0 0.0 0.00 0.58 0.58 89 1010.8
20260506072449 8 41 3.2 4.8 0.00 0.58 0.58 89 1010.9
20260506071947 8 93 3.2 4.8 0.00 0.58 0.58 89 1010.6
20260506071444 8 77 4.8 4.8 0.00 0.58 0.58 89 1010.5
20260506070941 8 55 1.6 1.6 0.00 0.58 0.58 89 1011.1
20260506070438 8 118 1.6 4.8 0.05 0.58 0.58 89 1010.8
20260506062416 8 89 3.2 3.2 0.05 0.56 0.56 89 1011.1
20260506061911 8 76 1.6 1.6 0.05 0.53 0.53 89 1010.9
20260506061408 8 3 3.2 3.2 0.13 0.53 0.53 89 1011.0
20260506060906 8 290 1.6 3.2 0.13 0.51 0.51 89 1011.0
20260506060404 8 97 1.6 4.8 0.13 0.51 0.51 89 1010.8
20260506051336 10 135 0.0 1.6 0.18 0.33 0.33 89 1010.7
20260506050833 10 198 3.2 4.8 0.36 0.30 0.30 89 1010.7
20260506050331 10 338 4.8 4.8 0.43 0.28 0.28 89 1010.2
20260506044821 10 157 0.0 1.6 0.30 0.18 0.18 89 1010.6
20260506044319 10 21 0.0 1.6 0.23 0.15 0.15 89 1010.5
20260506043816 10 17 1.6 3.2 0.18 0.13 0.13 89 1010.2
20260506043313 10 17 3.2 3.2 0.13 0.10 0.10 89 1010.4
20260506042812 10 202 0.0 0.0 0.18 0.10 0.10 89 1010.6
20260506042310 10 343 0.0 1.6 0.18 0.08 0.08 89 1010.4
20260506041809 10 304 0.0 0.0 0.13 0.05 0.05 89 1010.3
20260506041305 10 327 0.0 0.0 0.18 0.05 0.05 89 1010.3
20260506040802 10 29 0.0 0.0 0.30 0.05 0.05 89 1010.1
20260506040259 10 87 1.6 3.2 0.23 0.00 0.00 89 1010.3
20260506035756 10 5 0.0 1.6 0.05 0.48 0.48 89 1010.2
20260506035253 10 59 4.8 4.8 0.05 0.46 0.46 89 1009.9
20260506034750 10 68 0.0 1.6 0.13 0.46 0.46 88 1010.0
20260506034247 10 315 0.0 1.6 0.18 0.46 0.46 88 1010.0
20260506033744 11 130 0.0 3.2 0.23 0.43 0.43 88 1010.1
20260506033241 10 89 0.0 0.0 0.30 0.43 0.43 88 1009.9
20260506032738 11 66 0.0 1.6 0.36 0.41 0.41 87 1009.9
20260506032235 11 80 1.6 3.2 0.30 0.38 0.38 87 1009.8
20260506031732 10 64 1.6 3.2 0.30 0.33 0.33 86 1009.7
20260506031229 11 103 0.0 1.6 0.61 0.30 0.30 86 1009.7
20260506030727 11 99 1.6 3.2 0.61 0.28 0.28 84 1009.6
20260506030224 11 122 0.0 1.6 0.48 0.20 0.20 80 1009.5
20260506025721 11 161 1.6 4.8 0.48 0.15 0.15 79 1009.6
20260506025218 12 96 3.2 4.8 0.30 0.10 0.10 76 1009.1
20260506024715 12 271 1.6 6.4 0.18 0.08 0.08 74 1009.0
20260506024211 12 58 1.6 3.2 0.00 0.05 0.05 74 1008.9
20260506023707 13 172 3.2 3.2 0.00 0.05 0.05 76 1008.7
20260506023205 13 218 0.0 8.0 0.00 0.05 0.05 71 1008.5
20260506022656 13 152 6.4 8.0 0.00 0.05 0.05 68 1008.8
20260506022154 13 193 3.2 3.2 0.00 0.05 0.05 70 1008.6
20260506021652 12 245 3.2 6.4 0.05 0.05 0.05 72 1008.7
20260506021148 12 96 3.2 3.2 0.05 0.05 0.05 76 1008.6
20260506020640 12 143 0.0 3.2 0.13 0.05 0.05 77 1008.8
20260506020137 13 197 0.0 8.0 0.23 0.05 0.05 74 1008.8
20260506015635 14 14 3.2 8.0 0.13 0.03 0.03 67 1008.6
20260506015131 15 6 0.0 4.8 0.00 0.00 0.00 66 1008.5
20260506014629 15 69 3.2 4.8 0.00 0.00 0.00 62 1008.2
20260506014124 15 96 8.0 8.0 0.00 0.00 0.00 63 1008.2
20260506013623 15 138 3.2 9.7 0.00 0.00 0.00 65 1008.2
20260506013119 15 304 3.2 4.8 0.00 0.00 0.00 66 1007.9
20260506012616 15 153 4.8 4.8 0.00 0.00 0.00 70 1007.5
20260506012112 15 316 0.0 3.2 0.00 0.00 0.00 71 1007.9
20260506011610 16 37 3.2 3.2 0.00 0.00 0.00 71 1007.2
20260506011106 16 37 0.0 6.4 0.00 0.00 0.00 70 1007.4
20260506010605 16 333 3.2 4.8 0.00 0.00 0.00 71 1007.2
20260506005559 16 16 3.2 4.8 0.00 0.00 0.00 74 1007.0
20260506005054 15 357 3.2 3.2 0.00 0.00 0.00 79 1007.0
20260506004552 15 336 6.4 6.4 0.00 0.00 0.00 79 1006.6
20260506004048 15 5 3.2 4.8 0.00 0.00 0.00 78 1006.3
20260506003545 16 52 3.2 3.2 0.00 0.00 0.00 77 1006.4
20260506003041 16 52 0.0 3.2 0.00 0.00 0.00 76 1006.2
20260506002537 16 305 3.2 3.2 0.00 0.00 0.00 76 1006.0
20260506002033 16 218 3.2 6.4 0.00 0.00 0.00 74 1005.8
20260506001530 17 256 1.6 6.4 0.00 0.00 0.00 72 1006.0
20260506001027 16 190 4.8 6.4 0.00 0.00 0.00 73 1005.6
20260506000524 16 311 0.0 3.2 0.00 0.00 0.00 72 1005.7
20260506000022 17 224 4.8 17.7 0.00 0.00 0.00 69 1005.6
20260505235520 17 187 6.4 17.7 0.00 0.00 0.00 69 1005.9
20260505235016 17 163 8.0 14.5 0.00 0.00 0.00 70 1005.9
20260505234513 16 209 4.8 6.4 0.00 0.00 0.00 73 1005.7
20260505234010 16 180 6.4 6.4 0.00 0.00 0.00 76 1005.5
20260505233508 16 202 3.2 6.4 0.00 0.00 0.00 76 1005.7
20260505233005 16 310 1.6 9.7 0.00 0.00 0.00 75 1005.8
20260505232503 16 189 6.4 6.4 0.00 0.00 0.00 75 1005.6
20260505232000 16 197 8.0 9.7 0.00 0.00 0.00 73 1005.5